Location: ??????????
(54.8537°N, 38.8755°E)
Time: 02:17:09
(UTC+00:00)

Vanguard 2 Rocket - Pass Details

Date: 20 September 2024
Orbit: 553 x 3298 km, 32.9° (Epoch: 10 October)

Event Time Altitude Azimuth Distance (km) Brightness Sun altitude
Rises 04:10:25 0° 260° (W) 6,040 10.5 8.3°
Reaches altitude 10° 04:18:29 10° 235° (SW) 5,634 10.6 9.4°
Maximum altitude 04:23:35 12° 217° (SW) 5,742 10.8 10.1°
Drops below altitude 10° 04:29:03 10° 200° (SSW) 6,118 11.1 10.9°
Sets 04:39:18 0° 176° (S) 7,266 11.8 12.3°
